Pagina principale
METAR-TAF:

METAR-TAF

Aeroporti :

Frontone, Italia

latitudine: 43-31N, longitudine: 012-44E, altezza: 570 m

Osservazione

Il bollettino è stato emesso 58 minuti fa, alle 14:55 UTC
Vento 4 kt da ovest
Temperature 20°C
Umidità 49%
Pressione 1014 hPa
Visibilità 10 km o più
Nubi sparse ad un'altezza di 3000 ft

METAR: LIVF 131455Z 28004KT 9999 SCT030 20/09 Q1014

Ora: 17:53 (15:53 UTC)


TAF: mancante

Osservazioni e previsioni meteorologiche di più di 4000 aeroporti (messaggi METAR e TAF).

Le stazioni disponibili sono rappresentate dai dischi gialli e rossi sulla carta.

Puntare il mouse per vedere il nome della stazione.

Clicca sopra per visualizzare le osservazioni e previsioni meteorologiche.

Per cambiare la mappa : fare clic sui pulsanti verdi con una croce nera per ingrandire, il pulsante verde con un trattino per diminuire, o sulla freccia verde per le mappe adiacenti.


METAR-TAF: